ZKPCA NZNE-NZKK

Flight info

Callsign ZKPCA
Flight time N/A
Altitude 4000
Route DCT MHED1 DCT BHEAD DCT OPON1 DCT PQURY DCT
Aircraft C172/L-V/N

Departure

Time N/A
Airport North Shore Aerodrome (NZNE)

Arrival

Time 2026-04-11 13:22
Airport Kerikeri Airport (NZKK)
Time Latitude Longitude Altitude Speed Heading
2026-04-11 13:22 -35.26241 173.91223 480 ft 0 kts 19°
2026-04-11 13:24 -35.26249 173.91364 478 ft 0 kts 346°
2026-04-11 13:25 -35.26224 173.91351 541 ft 17 kts 38°
2026-04-11 13:25 -35.26414 173.91255 624 ft 35 kts 219°
2026-04-11 13:25 -35.26101 173.91241 743 ft 48 kts 82°
2026-04-11 13:25 -35.26239 173.91250 988 ft 29 kts 145°
2026-04-11 13:26 -35.26230 173.91274 588 ft 55 kts 273°
2026-04-11 13:26 -35.26331 173.91193 1144 ft 21 kts 90°
2026-04-11 13:26 -35.26296 173.91234 1050 ft 28 kts 154°
2026-04-11 13:26 -35.26311 173.91251 656 ft 9 kts 155°
2026-04-11 13:27 -35.26353 173.91190 1001 ft 14 kts 358°
2026-04-11 13:27 -35.26217 173.91198 825 ft 4 kts
2026-04-11 13:27 -35.26162 173.91099 1211 ft 34 kts 65°
2026-04-11 13:27 -35.26265 173.91284 475 ft 0 kts 75°
2026-04-11 13:28 -35.26249 173.91364 473 ft 0 kts 346°
2026-04-11 13:28 -35.26199 173.91302 593 ft 25 kts 219°
2026-04-11 13:29 -35.26128 173.91072 1121 ft 21 kts 226°
2026-04-11 13:29 -35.26214 173.91186 650 ft 7 kts 143°
2026-04-11 13:29 -35.26066 173.91219 509 ft 28 kts 15°
2026-04-11 13:29 -35.25924 173.91221 483 ft 0 kts 289°
2026-04-11 13:30 -35.25955 173.91228 481 ft 0 kts 345°
2026-04-11 13:30 -35.25968 173.91244 485 ft 23 kts 77°
2026-04-11 13:30 -35.26082 173.91201 501 ft 1 kts 97°
2026-04-11 13:30 -35.26094 173.91149 482 ft 9 kts 67°
2026-04-11 13:31 -35.26090 173.91147 493 ft 0 kts 86°
2026-04-11 13:38 -35.26221 173.91351 632 ft 17 kts 215°
2026-04-11 13:38 -35.26271 173.91347 1285 ft 42 kts 167°
2026-04-11 13:39 -35.26127 173.90943 737 ft 10 kts 194°
2026-04-11 13:39 -35.26087 173.90690 1447 ft 25 kts 88°
2026-04-11 13:39 -35.26125 173.91060 1189 ft 67 kts 84°
2026-04-11 13:39 -35.26089 173.91308 617 ft 51 kts 202°
2026-04-11 13:40 -35.26220 173.91250 742 ft 11 kts 148°
2026-04-11 13:40 -35.26219 173.91272 1158 ft 19 kts 111°
2026-04-11 13:40 -35.26117 173.91227 900 ft 40 kts 31°
2026-04-11 13:40 -35.26167 173.91148 1157 ft 20 kts 104°
2026-04-11 13:41 -35.26018 173.91023 1141 ft 26 kts 274°
2026-04-11 13:41 -35.25930 173.91069 836 ft 50 kts 83°
2026-04-11 13:41 -35.26150 173.91215 738 ft 50 kts 134°
2026-04-11 13:41 -35.26099 173.91187 1281 ft 56 kts 38°
2026-04-11 13:42 -35.26000 173.90947 998 ft 72 kts 80°
2026-04-11 13:42 -35.25890 173.91004 1103 ft 42 kts 59°
2026-04-11 13:42 -35.25901 173.91105 1142 ft 63 kts 42°